Wind_Speed
94 90 86 88 94 97 92 89 86 85 81 77 73 71 67 61 55 55 52 51 50 48 47 46 45 43 41 40 40 40 39 39 43 44 44 47 46 48 51 52 52 53 54 59
98 91 93 94 89 94 97 94 91 91 87 83 80 74 72 69 63 61 58 54 55 53 52 51 50 47 46 45 44 43 43 41 43 46 47 47 48 48 51 54 54 54 55 59
104 98 99 100 99 93 91 94 97 95 91 88 84 78 77 73 70 68 65 64 60 57 57 56 54 51 50 50 49 47 47 47 48 48 47 48 50 51 53 55 58 59 59 61
106 106 102 102 101 99 96 94 96 98 96 92 89 82 81 79 75 73 72 69 68 64 60 57 57 57 54 53 53 53 51 52 52 53 55 56 56 56 57 59 62 64 62 62
82 104 111 106 104 106 102 100 98 98 95 94 89 86 84 83 79 78 77 75 74 70 67 68 61 58 56 55 55 54 51 52 53 54 56 58 61 60 60 62 64 65 65 63
72 80 103 109 109 107 106 105 103 102 98 93 91 92 81 85 85 83 82 80 78 75 72 73 70 67 66 63 61 60 55 57 57 56 55 55 57 58 60 62 61 63 64 63
71 71 71 91 107 113 108 108 108 107 105 95 99 98 82 88 86 84 81 81 80 79 76 75 72 69 65 64 64 64 62 62 61 61 59 58 58 59 59 60 59 60 62 63
78 78 74 72 86 103 113 118 113 113 110 106 104 95 84 88 90 88 88 88 86 84 81 77 75 74 72 70 69 70 70 70 68 67 66 65 64 63 62 61 62 63 65 66
82 82 81 79 80 89 110 117 116 116 111 110 106 96 94 93 96 96 92 90 89 88 84 80 81 80 80 79 77 76 74 72 70 70 69 67 66 65 66 66 65 65 67 70
87 91 88 91 90 88 86 96 114 116 112 110 105 100 95 100 102 101 101 97 95 93 90 87 85 84 81 79 77 76 75 74 73 72 71 69 69 69 70 69 68 68 70 71
100 98 96 98 91 85 82 82 88 101 109 109 103 97 100 101 102 102 103 101 103 101 97 94 91 90 90 87 83 80 78 76 76 77 75 75 73 72 73 72 72 74 74 75
104 104 107 100 99 97 93 86 88 91 92 96 100 94 94 94 95 99 98 100 101 103 102 100 99 98 94 93 91 90 88 88 88 86 83 81 82 81 79 79 79 79 77 78
111 113 109 110 106 103 95 92 89 90 90 81 80 72 79 79 88 92 93 94 94 93 93 94 94 94 95 94 90 90 91 90 87 87 86 85 83 81 82 82 81 81 81 82
122 120 115 109 97 104 103 99 97 95 90 78 69 69 73 75 75 84 92 92 93 95 96 96 97 97 95 94 92 90 89 87 87 87 87 86 85 84 81 81 81 80 79 76
125 124 119 111 112 111 107 106 109 108 93 97 68 73 74 73 74 77 74 75 76 82 85 88 90 89 89 89 88 88 89 87 87 87 87 85 84 82 82 80 78 77 75 75
126 122 123 121 118 116 114 113 116 113 100 97 75 78 74 74 73 69 71 71 68 69 75 81 82 83 84 84 84 85 85 86 86 86 87 85 82 81 82 79 77 78 76 73
127 122 124 123 122 122 125 115 112 109 106 101 95 72 79 78 81 77 74 70 66 69 68 69 70 70 72 76 76 75 75 76 80 84 80 77 78 79 80 81 81 77 75 75
129 127 131 126 126 134 120 116 115 114 110 110 93 85 82 84 84 81 75 71 70 69 66 67 67 66 64 64 68 70 70 69 71 72 72 75 80 83 85 81 77 73 70 69
136 134 134 134 133 129 123 118 117 112 105 106 99 92 87 88 89 82 76 76 75 74 71 70 69 66 62 59 61 64 65 64 63 66 66 65 64 63 60 61 61 63 63 60
143 142 143 142 138 133 125 121 121 116 107 105 99 90 88 93 99 72 85 84 84 80 79 79 75 69 64 64 64 63 64 66 66 65 64 59 58 56 55 54 57 60 63 64
151 151 150 146 144 138 127 123 126 123 109 109 102 94 94 102 96 89 93 90 89 85 86 83 79 75 71 68 67 67 66 66 66 64 64 63 60 60 57 55 52 53 54 54
150 151 153 152 153 146 125 126 130 122 115 110 110 102 99 108 102 94 94 96 94 91 91 87 84 81 76 72 69 67 66 69 69 69 66 65 62 61 60 57 53 52 52 52
148 148 143 147 151 146 132 137 141 136 131 121 115 111 107 109 106 103 99 99 98 96 95 90 89 86 81 77 73 71 71 69 69 70 69 69 70 64 61 61 58 55 54 52
137 147 151 147 146 146 134 141 143 144 138 134 124 119 113 112 112 108 105 102 102 101 100 96 94 92 89 84 81 78 73 70 71 71 70 69 69 69 64 63 63 60 56 54
124 134 141 144 140 142 138 145 147 150 145 141 128 123 120 116 114 110 107 105 104 104 106 102 101 100 97 92 89 85 82 77 72 70 72 70 69 67 67 68 67 63 61 58
111 117 128 126 131 140 143 140 141 149 153 146 140 128 125 121 119 115 111 110 109 109 112 110 109 107 103 99 97 93 88 85 80 76 74 72 69 68 67 67 69 64 61 60
Wind_Direction
227 227 227 234 231 231 229 229 231 232 232 231 229 232 235 237 236 239 240 246 251 255 256 256 257 257 261 264 266 272 276 283 290 297 303 308 312 314 314 317 321 324 330 332
229 226 228 231 234 235 232 231 232 234 232 232 233 231 235 237 238 239 241 241 244 251 254 257 259 262 263 264 267 274 275 277 279 285 293 300 303 307 313 313 320 324 329 329
231 229 228 230 232 233 237 234 233 234 234 236 236 234 236 236 236 240 242 242 242 244 250 253 255 258 261 266 269 271 271 276 282 286 293 297 301 306 309 313 317 321 323 325
229 230 231 232 232 233 235 236 238 236 236 236 236 235 238 239 239 240 242 243 244 244 244 249 255 259 261 264 268 271 277 282 287 290 295 298 301 304 307 311 314 314 317 321
230 229 230 230 232 233 232 234 235 239 240 238 238 239 241 241 241 244 245 246 247 244 245 250 247 252 259 262 266 270 274 278 284 289 292 295 297 300 303 306 308 309 313 316
235 233 233 231 233 235 235 235 236 237 240 239 240 241 236 246 247 249 249 249 250 252 251 255 258 259 260 261 262 266 269 271 276 284 287 290 291 294 296 298 302 306 309 312
236 236 237 234 234 235 236 237 237 238 239 237 237 239 234 242 247 251 253 255 255 256 257 258 260 260 262 264 267 269 270 272 273 277 280 284 288 292 295 296 300 303 306 309
234 232 233 235 234 233 233 233 235 237 238 238 238 240 237 239 245 247 249 251 252 253 253 254 258 261 262 263 265 269 271 273 275 277 280 282 284 288 291 294 297 300 304 305
234 231 230 232 235 235 234 235 236 237 238 240 241 240 241 243 244 245 248 250 251 253 254 255 257 258 261 263 264 265 268 271 273 275 277 280 283 285 288 291 294 296 301 303
234 232 228 226 228 232 236 235 237 238 240 241 241 242 242 243 245 245 248 250 252 254 255 255 257 259 260 262 264 265 267 270 273 275 277 280 283 285 287 289 291 294 297 300
232 231 230 230 229 233 236 237 238 237 238 241 241 242 243 245 246 247 247 248 250 253 255 258 257 258 262 263 264 265 266 269 272 274 276 278 281 284 285 286 289 291 292 296
232 231 230 229 227 225 229 228 230 232 234 237 237 237 240 242 246 246 248 251 251 252 253 256 257 258 259 260 263 265 267 270 273 273 274 276 277 279 280 282 285 287 287 291
231 232 230 229 229 228 228 231 232 233 234 234 232 230 237 239 241 243 245 247 249 253 256 260 260 260 261 261 262 263 264 267 268 270 272 273 275 276 278 279 280 283 285 288
231 231 231 230 230 230 228 228 231 234 233 231 227 222 222 228 234 241 244 246 250 253 254 254 256 258 259 259 261 263 264 265 267 268 269 271 273 274 275 277 279 280 282 286
229 232 232 230 230 230 231 230 230 230 229 231 222 224 222 228 233 239 242 245 246 248 250 252 254 256 257 258 261 264 267 268 267 267 268 270 272 273 274 275 277 279 282 285
230 230 232 231 231 230 229 229 230 230 227 230 222 224 224 225 233 240 241 240 241 245 249 251 253 255 258 259 260 261 263 265 266 268 270 271 271 271 272 273 275 278 280 282
230 230 231 231 232 233 231 229 231 232 229 229 222 218 228 227 230 236 239 241 243 245 246 248 250 253 256 258 260 262 264 266 266 265 265 267 270 271 274 276 278 279 282 285
229 229 231 231 230 232 233 230 229 230 229 230 224 224 225 230 234 236 242 242 242 247 250 252 254 256 256 258 262 263 263 267 271 270 270 269 270 272 274 275 277 278 279 279
231 230 232 233 232 233 234 233 234 232 229 231 227 225 226 231 236 236 243 247 247 250 253 255 257 258 259 260 257 256 260 263 268 269 270 272 272 274 277 277 279 277 277 278
231 232 232 233 233 234 233 233 236 235 229 232 229 228 229 234 236 235 243 244 247 248 251 254 256 258 260 262 261 261 260 262 264 267 269 272 275 277 279 281 279 278 277 276
230 231 232 234 235 234 233 235 237 236 232 233 230 226 229 236 237 234 240 243 247 250 252 254 256 257 258 261 263 264 264 262 263 265 267 271 274 278 279 281 283 282 281 280
232 232 232 234 237 235 234 237 239 241 239 233 232 231 230 236 237 238 242 246 248 250 252 254 256 258 258 259 260 261 262 263 264 265 267 269 271 278 279 280 281 284 283 281
232 235 234 234 236 238 234 235 239 239 239 236 235 233 232 235 237 237 238 242 247 250 252 253 256 258 259 260 259 258 258 260 262 263 263 265 268 270 274 278 280 280 281 280
230 233 235 235 235 236 235 237 238 241 241 239 233 234 232 233 237 238 240 241 244 247 250 251 253 256 259 260 261 262 260 259 259 260 261 263 265 268 269 271 275 276 276 277
230 229 233 234 235 237 234 236 237 240 241 243 239 236 235 234 236 237 239 241 244 247 250 252 253 253 255 256 257 259 259 256 257 260 259 260 262 265 267 268 269 273 273 276
231 232 233 233 233 235 236 233 234 236 239 240 241 238 239 236 236 236 238 241 242 245 248 251 252 254 255 256 257 255 254 254 257 257 257 258 261 264 263 263 265 267 270 271
Height
10637 10650 10666 10662 10667 10676 10686 10696 10702 10706 10716 10725 10729 10734 10740 10750 10757 10757 10762 10765 10767 10769 10771 10773 10774 10777 10778 10779 10780 10779 10779 10778 10775 10774 10773 10772 10769 10765 10760 10754 10749 10745 10738 10730
10622 10642 10642 10641 10650 10659 10670 10680 10687 10688 10699 10709 10717 10727 10727 10736 10745 10748 10751 10757 10758 10760 10761 10764 10766 10769 10771 10770 10771 10772 10772 10772 10770 10768 10767 10765 10763 10759 10755 10749 10744 10739 10735 10727
10604 10617 10620 10624 10632 10644 10655 10666 10665 10674 10686 10696 10703 10718 10717 10723 10731 10735 10740 10743 10748 10750 10752 10754 10758 10761 10763 10763 10764 10765 10765 10765 10763 10762 10760 10759 10756 10754 10750 10744 10738 10734 10730 10723
10584 10598 10604 10612 10622 10628 10636 10644 10647 10656 10664 10679 10690 10706 10708 10709 10718 10723 10725 10730 10734 10741 10743 10745 10748 10750 10755 10756 10755 10755 10758 10757 10756 10755 10753 10751 10749 10747 10743 10738 10733 10728 10724 10719
10565 10567 10577 10588 10598 10603 10617 10621 10627 10635 10649 10665 10678 10690 10699 10697 10705 10707 10711 10717 10720 10729 10732 10731 10737 10741 10746 10747 10745 10747 10751 10750 10749 10747 10745 10743 10741 10739 10736 10733 10728 10722 10718 10715
10544 10552 10560 10574 10577 10586 10600 10607 10614 10621 10631 10651 10659 10664 10694 10682 10685 10691 10696 10702 10707 10714 10721 10719 10723 10731 10735 10738 10736 10737 10741 10740 10741 10740 10739 10735 10733 10731 10729 10726 10722 10716 10711 10708
10528 10537 10541 10547 10557 10564 10580 10584 10592 10600 10610 10636 10630 10638 10684 10672 10672 10676 10681 10686 10692 10699 10706 10707 10709 10716 10723 10725 10723 10723 10727 10728 10730 10730 10730 10727 10726 10723 10721 10718 10715 10710 10703 10700
10504 10513 10522 10527 10532 10539 10545 10550 10558 10569 10588 10608 10614 10640 10665 10661 10658 10660 10664 10669 10674 10680 10690 10695 10696 10702 10708 10713 10713 10714 10716 10717 10718 10718 10719 10718 10717 10715 10712 10710 10707 10703 10696 10691
10483 10494 10502 10509 10510 10512 10524 10535 10540 10555 10568 10579 10602 10631 10641 10646 10639 10640 10647 10653 10657 10663 10673 10682 10687 10689 10691 10697 10700 10702 10704 10705 10706 10707 10707 10707 10707 10706 10703 10701 10698 10695 10690 10684
10462 10468 10478 10477 10478 10488 10505 10510 10517 10538 10556 10570 10590 10606 10621 10616 10618 10629 10631 10636 10641 10647 10654 10663 10672 10675 10678 10681 10684 10689 10689 10692 10693 10695 10696 10696 10695 10695 10693 10692 10688 10686 10682 10677
10427 10441 10453 10451 10475 10487 10489 10500 10507 10516 10531 10551 10571 10589 10593 10596 10599 10605 10610 10620 10624 10629 10635 10643 10652 10657 10662 10665 10670 10673 10675 10677 10678 10680 10683 10684 10682 10682 10682 10680 10678 10675 10672 10668
10411 10412 10417 10441 10446 10453 10459 10476 10481 10490 10516 10527 10545 10566 10570 10577 10580 10585 10592 10600 10608 10614 10619 10624 10631 10636 10643 10648 10652 10656 10658 10661 10663 10666 10667 10669 10668 10669 10668 10666 10665 10662 10660 10657
10380 10379 10396 10405 10417 10439 10459 10463 10473 10477 10488 10514 10530 10563 10558 10561 10553 10559 10570 10581 10592 10597 10600 10605 10611 10618 10623 10629 10634 10637 10639 10643 10646 10648 10651 10651 10651 10654 10653 10651 10649 10648 10647 10645
10337 10350 10368 10391 10431 10416 10429 10438 10447 10452 10465 10504 10522 10534 10537 10534 10535 10537 10549 10564 10576 10580 10583 10588 10591 10594 10600 10605 10612 10616 10619 10625 10627 10629 10632 10634 10635 10636 10636 10635 10634 10633 10632 10632
10308 10322 10346 10373 10377 10390 10407 10415 10417 10421 10464 10451 10520 10512 10519 10520 10521 10526 10539 10547 10556 10561 10564 10567 10573 10576 10581 10588 10591 10595 10599 10604 10607 10609 10613 10615 10618 10618 10619 10619 10618 10618 10617 10616
10278 10304 10315 10337 10347 10358 10372 10386 10386 10402 10441 10451 10496 10493 10504 10511 10510 10515 10520 10528 10536 10540 10546 10551 10554 10557 10563 10569 10574 10577 10579 10582 10586 10588 10592 10596 10597 10598 10601 10602 10602 10602 10602 10600
10261 10283 10289 10308 10324 10328 10326 10365 10382 10401 10422 10433 10453 10495 10480 10487 10487 10491 10501 10513 10522 10523 10528 10532 10534 10540 10545 10549 10555 10559 10563 10568 10570 10573 10574 10577 10580 10582 10584 10584 10584 10586 10585 10584
10236 10252 10252 10276 10288 10279 10319 10345 10356 10368 10387 10400 10447 10463 10470 10464 10469 10476 10488 10496 10502 10503 10507 10513 10519 10524 10529 10535 10539 10545 10548 10552 10553 10556 10558 10560 10563 10566 10567 10568 10567 10568 10568 10569
10205 10218 10226 10233 10254 10272 10297 10320 10329 10351 10385 10395 10420 10439 10452 10448 10445 10465 10474 10476 10480 10486 10493 10495 10499 10506 10514 10521 10525 10529 10533 10537 10539 10541 10543 10547 10549 10549 10550 10550 10551 10553 10554 10555
10173 10186 10188 10199 10217 10241 10279 10299 10300 10319 10352 10373 10404 10430 10434 10424 10416 10471 10445 10450 10453 10464 10471 10474 10482 10494 10501 10505 10510 10515 10517 10521 10523 10526 10530 10533 10534 10535 10535 10536 10536 10537 10538 10539
10126 10140 10151 10168 10182 10210 10256 10272 10272 10284 10336 10344 10374 10403 10405 10390 10411 10425 10419 10430 10436 10448 10450 10458 10468 10476 10485 10491 10496 10499 10502 10505 10508 10511 10515 10516 10519 10521 10523 10524 10523 10523 10522 10522
10094 10107 10127 10142 10144 10169 10247 10251 10240 10273 10302 10329 10339 10367 10383 10362 10382 10407 10412 10410 10417 10427 10430 10442 10450 10459 10467 10476 10482 10485 10488 10490 10493 10495 10498 10500 10502 10504 10507 10509 10508 10508 10508 10509
10056 10069 10106 10119 10129 10157 10220 10211 10205 10222 10245 10284 10306 10328 10346 10346 10361 10376 10388 10392 10398 10405 10411 10424 10430 10438 10448 10456 10464 10467 10469 10474 10478 10480 10482 10483 10486 10489 10492 10494 10495 10496 10496 10496
10031 10050 10052 10078 10099 10124 10180 10184 10187 10191 10213 10231 10270 10290 10313 10326 10335 10350 10362 10374 10377 10381 10385 10397 10407 10415 10425 10435 10444 10450 10456 10458 10461 10464 10467 10469 10469 10472 10476 10478 10479 10481 10482 10483
10005 10012 10024 10048 10079 10095 10124 10140 10158 10164 10182 10196 10237 10259 10277 10295 10307 10324 10337 10350 10359 10362 10362 10373 10382 10390 10400 10410 10420 10428 10436 10440 10445 10448 10451 10454 10454 10456 10458 10460 10462 10467 10468 10468
9981 9999 10001 10032 10053 10057 10079 10102 10113 10124 10139 10162 10180 10216 10237 10261 10280 10294 10310 10321 10333 10341 10341 10347 10357 10365 10378 10388 10394 10404 10412 10417 10425 10430 10434 10437 10438 10438 10440 10441 10445 10450 10452 10453